When you browse on this site, cookies collect data to enhance your experience and personalize the content and advertising you see.
Visit our Privacy Policy to learn more. By continuing to use the site, you agree to this use of cookies and data.
  • In Switzerland
  • List of Countries
  • For 7 days
  • Water Temperature
  • Weather Map
  • Weather Widgets
  • user-avatar
    Login

    Hourly Weather Da Nang

    Today, 3 June, Wednesday

    Time Temperature Precipitation Wind Pressure Humidity
    00:00 +27°C° 0.1 mm 2 mps 755 mmHg 92%
    01:00 +26°C° 0 mm 2 mps 755 mmHg 91%
    02:00 +26°C° 0 mm 2 mps 755 mmHg 90%
    03:00 +26°C° 0 mm 2 mps 754 mmHg 90%
    04:00 +26°C° 0 mm 2 mps 754 mmHg 89%
    05:00 +28°C° 0 mm 1 mps 754 mmHg 85%
    06:00 +29°C° 0 mm 1 mps 755 mmHg 81%
    07:00 +30°C° 0 mm 1 mps 755 mmHg 74%
    08:00 +32°C° 0 mm 1 mps 755 mmHg 65%
    09:00 +35°C° 0 mm 1 mps 755 mmHg 56%
    10:00 +37°C° 0 mm 1 mps 755 mmHg 46%
    11:00 +38°C° 0 mm 2 mps 755 mmHg 46%
    12:00 +39°C° 0 mm 2 mps 754 mmHg 45%
    13:00 +39°C° 0 mm 3 mps 754 mmHg 43%
    14:00 +38°C° 0.2 mm 3 mps 753 mmHg 51%
    15:00 +36°C° 0.2 mm 2 mps 753 mmHg 59%
    16:00 +34°C° 0.2 mm 2 mps 752 mmHg 66%
    17:00 +32°C° 0.2 mm 2 mps 753 mmHg 73%
    18:00 +30°C° 0.2 mm 2 mps 753 mmHg 80%
    19:00 +29°C° 0 mm 1 mps 754 mmHg 87%
    20:00 +28°C° 0.4 mm 1 mps 754 mmHg 88%
    21:00 +28°C° 0.4 mm 2 mps 755 mmHg 90%
    22:00 +27°C° 0.4 mm 2 mps 755 mmHg 91%
    23:00 +27°C° 0.1 mm 2 mps 755 mmHg 91%

    Tomorrow, 4 June, Thursday

    Time Temperature Precipitation Wind Pressure Humidity
    00:00 +27°C° 0.1 mm 2 mps 754 mmHg 91%
    01:00 +27°C° 0.1 mm 2 mps 754 mmHg 90%
    02:00 +27°C° 0 mm 2 mps 754 mmHg 89%
    03:00 +27°C° 0 mm 2 mps 753 mmHg 89%
    04:00 +27°C° 0 mm 2 mps 753 mmHg 88%
    05:00 +28°C° 0 mm 2 mps 754 mmHg 83%
    06:00 +29°C° 0 mm 1 mps 754 mmHg 79%
    07:00 +30°C° 0 mm 1 mps 754 mmHg 74%
    08:00 +33°C° 0 mm 1 mps 754 mmHg 65%
    09:00 +35°C° 0 mm 1 mps 755 mmHg 56%
    10:00 +37°C° 0 mm 1 mps 755 mmHg 47%
    11:00 +38°C° 0 mm 2 mps 754 mmHg 47%
    12:00 +39°C° 0 mm 2 mps 754 mmHg 46%
    13:00 +39°C° 0 mm 3 mps 753 mmHg 46%
    14:00 +38°C° 0.3 mm 3 mps 753 mmHg 53%
    15:00 +36°C° 0.3 mm 2 mps 752 mmHg 61%
    16:00 +35°C° 0.3 mm 2 mps 752 mmHg 68%
    17:00 +32°C° 1.2 mm 1 mps 752 mmHg 77%
    18:00 +30°C° 1.2 mm 1 mps 753 mmHg 85%
    19:00 +26°C° 1.2 mm 0 mps 753 mmHg 93%
    20:00 +28°C° 0.2 mm 1 mps 753 mmHg 93%
    21:00 +28°C° 0.2 mm 1 mps 754 mmHg 93%
    22:00 +28°C° 0.2 mm 1 mps 754 mmHg 92%
    23:00 +28°C° 0 mm 1 mps 754 mmHg 92%

    Day after tomorrow, 5 June, Friday

    Time Temperature Precipitation Wind Pressure Humidity
    00:00 +27°C° 0 mm 2 mps 754 mmHg 92%
    01:00 +27°C° 0 mm 2 mps 753 mmHg 92%
    02:00 +27°C° 0 mm 2 mps 753 mmHg 90%
    03:00 +27°C° 0 mm 2 mps 753 mmHg 88%
    04:00 +27°C° 0 mm 2 mps 753 mmHg 86%
    05:00 +28°C° 0 mm 2 mps 753 mmHg 83%
    06:00 +29°C° 0 mm 2 mps 753 mmHg 79%
    07:00 +30°C° 0 mm 2 mps 754 mmHg 76%
    08:00 +32°C° 0 mm 2 mps 754 mmHg 68%
    09:00 +35°C° 0 mm 2 mps 754 mmHg 59%
    10:00 +37°C° 0 mm 2 mps 754 mmHg 51%
    11:00 +38°C° 0.1 mm 2 mps 754 mmHg 49%
    12:00 +39°C° 0.1 mm 2 mps 753 mmHg 46%
    13:00 +40°C° 0.1 mm 2 mps 753 mmHg 44%
    14:00 +38°C° 0.2 mm 3 mps 752 mmHg 48%
    15:00 +37°C° 0.2 mm 3 mps 752 mmHg 52%
    16:00 +36°C° 0.2 mm 4 mps 752 mmHg 56%
    17:00 +34°C° 0 mm 3 mps 752 mmHg 64%
    18:00 +31°C° 0 mm 3 mps 752 mmHg 73%
    19:00 +30°C° 0 mm 2 mps 753 mmHg 81%
    20:00 +29°C° 0 mm 3 mps 753 mmHg 80%
    21:00 +29°C° 0 mm 3 mps 753 mmHg 80%
    22:00 +29°C° 0 mm 3 mps 754 mmHg 79%
    23:00 +29°C° 0 mm 2 mps 753 mmHg 79%

    6 June, Saturday

    Time Temperature Precipitation Wind Pressure Humidity
    00:00 +28°C° 0 mm 2 mps 753 mmHg 78%
    01:00 +28°C° 0 mm 2 mps 752 mmHg 78%
    02:00 +28°C° 0 mm 2 mps 752 mmHg 78%
    03:00 +28°C° 0 mm 2 mps 752 mmHg 78%
    04:00 +28°C° 0 mm 2 mps 752 mmHg 78%
    05:00 +29°C° 0 mm 2 mps 753 mmHg 76%
    06:00 +30°C° 0 mm 2 mps 753 mmHg 74%
    07:00 +31°C° 0 mm 2 mps 753 mmHg 72%
    08:00 +34°C° 0 mm 2 mps 753 mmHg 64%
    09:00 +36°C° 0 mm 2 mps 753 mmHg 56%
    10:00 +39°C° 0 mm 2 mps 753 mmHg 48%
    11:00 +39°C° 0.1 mm 2 mps 753 mmHg 45%
    12:00 +40°C° 0.1 mm 2 mps 753 mmHg 43%
    13:00 +41°C° 0.1 mm 2 mps 752 mmHg 40%
    14:00 +39°C° 0.3 mm 2 mps 752 mmHg 50%
    15:00 +37°C° 0.3 mm 2 mps 751 mmHg 59%
    16:00 +35°C° 0.3 mm 2 mps 751 mmHg 69%
    17:00 +32°C° 0.8 mm 2 mps 751 mmHg 76%
    18:00 +31°C° 0.8 mm 2 mps 752 mmHg 84%
    19:00 +29°C° 0.8 mm 2 mps 752 mmHg 91%
    20:00 +29°C° 0 mm 2 mps 753 mmHg 91%
    21:00 +29°C° 0 mm 2 mps 753 mmHg 91%
    22:00 +28°C° 0 mm 2 mps 754 mmHg 91%
    23:00 +28°C° 0 mm 2 mps 753 mmHg 91%

    7 June, Sunday

    Time Temperature Precipitation Wind Pressure Humidity
    00:00 +28°C° 0 mm 2 mps 753 mmHg 91%
    01:00 +28°C° 0 mm 2 mps 752 mmHg 90%
    02:00 +28°C° 0 mm 2 mps 752 mmHg 88%
    03:00 +28°C° 0 mm 2 mps 752 mmHg 86%
    04:00 +28°C° 0 mm 2 mps 752 mmHg 84%
    05:00 +29°C° 0 mm 2 mps 752 mmHg 81%
    06:00 +30°C° 0 mm 2 mps 753 mmHg 78%
    07:00 +31°C° 0 mm 2 mps 753 mmHg 74%
    08:00 +34°C° 0 mm 2 mps 753 mmHg 67%
    09:00 +35°C° 0 mm 2 mps 753 mmHg 59%
    10:00 +37°C° 0 mm 2 mps 753 mmHg 52%
    11:00 +38°C° 0 mm 2 mps 753 mmHg 48%
    12:00 +39°C° 0 mm 2 mps 752 mmHg 45%
    13:00 +40°C° 0 mm 2 mps 752 mmHg 41%
    14:00 +39°C° 0 mm 2 mps 751 mmHg 47%
    15:00 +38°C° 0 mm 3 mps 751 mmHg 52%
    16:00 +37°C° 0 mm 3 mps 750 mmHg 58%
    17:00 +34°C° 0.5 mm 2 mps 751 mmHg 68%
    18:00 +31°C° 0.5 mm 2 mps 751 mmHg 79%
    19:00 +29°C° 0.5 mm 2 mps 752 mmHg 89%
    20:00 +29°C° 0 mm 2 mps 752 mmHg 90%
    21:00 +29°C° 0 mm 2 mps 753 mmHg 90%
    22:00 +28°C° 0 mm 2 mps 753 mmHg 91%
    23:00 +28°C° 0 mm 2 mps 753 mmHg 91%

    8 June, Monday

    Time Temperature Precipitation Wind Pressure Humidity
    00:00 +28°C° 0 mm 2 mps 752 mmHg 91%
    01:00 +28°C° 0 mm 2 mps 752 mmHg 90%
    02:00 +28°C° 0 mm 2 mps 752 mmHg 88%
    03:00 +28°C° 0 mm 2 mps 752 mmHg 85%
    04:00 +28°C° 0 mm 2 mps 752 mmHg 82%
    05:00 +29°C° 0 mm 2 mps 752 mmHg 80%
    06:00 +29°C° 0 mm 2 mps 752 mmHg 77%
    07:00 +30°C° 0 mm 2 mps 753 mmHg 75%
    08:00 +34°C° 0 mm 2 mps 753 mmHg 65%
    09:00 +36°C° 0 mm 2 mps 753 mmHg 56%
    10:00 +38°C° 0 mm 2 mps 753 mmHg 46%
    11:00 +39°C° 0 mm 2 mps 753 mmHg 44%
    12:00 +40°C° 0 mm 2 mps 752 mmHg 42%
    13:00 +42°C° 0 mm 3 mps 752 mmHg 39%
    14:00 +39°C° 0 mm 3 mps 752 mmHg 46%
    15:00 +38°C° 0 mm 2 mps 751 mmHg 52%
    16:00 +36°C° 0 mm 2 mps 751 mmHg 59%
    17:00 +34°C° 0.2 mm 2 mps 752 mmHg 69%
    18:00 +31°C° 0.2 mm 2 mps 752 mmHg 78%
    19:00 +29°C° 0.2 mm 2 mps 753 mmHg 88%
    20:00 +29°C° 0.1 mm 2 mps 753 mmHg 89%
    21:00 +28°C° 0.1 mm 2 mps 753 mmHg 90%
    22:00 +28°C° 0.1 mm 2 mps 754 mmHg 91%
    23:00 +28°C° 0 mm 2 mps 754 mmHg 91%
    Show more